KLM912 LEBL-EGBB

Flight info

Callsign KLM912
Flight time 2h 1m
Altitude 32000
Route NATPI DCT EVNAM DCT TUPAR UN861 DIKRO UM184 HEMEL
Aircraft B738/M-SDE2E3FGHIRWXY/LB1

Departure

Time 2026-04-28 06:17
Airport Josep Tarradellas Barcelona-El Prat Airport (LEBL)

Arrival

Time 2026-04-28 08:19
Airport Birmingham Airport (EGBB)
Time Latitude Longitude Altitude Speed Heading
2026-04-28 06:01 41.29047 2.08117 2 ft 0 kts 335°
2026-04-28 06:11 41.29042 2.08120 2 ft 4 kts 335°
2026-04-28 06:11 41.29018 2.08137 2 ft 4 kts 326°
2026-04-28 06:11 41.28998 2.08159 3 ft 4 kts 305°
2026-04-28 06:11 41.28990 2.08188 2 ft 3 kts 249°
2026-04-28 06:12 41.28991 2.08192 2 ft 0 kts 245°
2026-04-28 06:14 41.28988 2.08184 2 ft 3 kts 245°
2026-04-28 06:14 41.28975 2.08148 2 ft 6 kts 236°
2026-04-28 06:14 41.28932 2.08136 3 ft 8 kts 165°
2026-04-28 06:15 41.28874 2.08169 3 ft 11 kts 157°
2026-04-28 06:15 41.28799 2.08212 2 ft 12 kts 156°
2026-04-28 06:15 41.28718 2.08248 3 ft 12 kts 135°
2026-04-28 06:15 41.28728 2.08342 4 ft 10 kts 66°
2026-04-28 06:16 41.28755 2.08418 9 ft 7 kts 64°
2026-04-28 06:16 41.28783 2.08478 9 ft 12 kts 44°
2026-04-28 06:16 41.28904 2.08544 8 ft 35 kts 19°
2026-04-28 06:16 41.29333 2.08738 5 ft 94 kts 19°
2026-04-28 06:17 41.30122 2.09096 3 ft 144 kts 19°
2026-04-28 06:17 41.31134 2.09548 397 ft 152 kts 18°
2026-04-28 06:17 41.32103 2.10211 830 ft 170 kts 46°
2026-04-28 06:18 41.32917 2.13321 1818 ft 195 kts 78°
2026-04-28 06:18 41.33159 2.15164 2359 ft 211 kts 79°
2026-04-28 06:18 41.33445 2.17120 3115 ft 215 kts 78°
2026-04-28 06:18 41.33812 2.19043 3960 ft 215 kts 65°
2026-04-28 06:19 41.34696 2.20700 4508 ft 232 kts 46°
2026-04-28 06:19 41.35823 2.22254 5380 ft 226 kts 46°
2026-04-28 06:19 41.36912 2.23775 6203 ft 228 kts 47°
2026-04-28 06:19 41.37991 2.25321 6940 ft 233 kts 43°
2026-04-28 06:20 41.39521 2.26342 7154 ft 266 kts
2026-04-28 06:20 41.41348 2.25910 7881 ft 277 kts 333°
2026-04-28 06:20 41.42875 2.24288 8661 ft 286 kts 311°
2026-04-28 06:20 41.44064 2.22135 9480 ft 292 kts 303°
2026-04-28 06:21 41.45196 2.19853 10340 ft 298 kts 304°
2026-04-28 06:21 41.46475 2.17562 10822 ft 317 kts 308°
2026-04-28 06:21 41.47937 2.15262 11303 ft 334 kts 311°
2026-04-28 06:21 41.49520 2.12889 11759 ft 351 kts 311°
2026-04-28 06:22 41.51146 2.10414 12464 ft 358 kts 310°
2026-04-28 06:22 41.52746 2.07899 13242 ft 362 kts 309°
2026-04-28 06:22 41.54367 2.05299 14037 ft 366 kts 309°
2026-04-28 06:22 41.56005 2.02669 14828 ft 370 kts 309°
2026-04-28 06:23 41.57673 2.00015 15614 ft 374 kts 309°
2026-04-28 06:23 41.59362 1.97346 16383 ft 378 kts 309°
2026-04-28 06:23 41.61068 1.94648 17103 ft 382 kts 309°
2026-04-28 06:23 41.62791 1.91914 17830 ft 385 kts 308°
2026-04-28 06:24 41.64523 1.89155 18533 ft 389 kts 308°
2026-04-28 06:24 41.66270 1.86368 19225 ft 393 kts 308°
2026-04-28 06:24 41.68033 1.83554 19887 ft 396 kts 308°
2026-04-28 06:24 41.69812 1.80716 20525 ft 400 kts 308°
2026-04-28 06:25 41.71607 1.77849 21127 ft 404 kts 308°
2026-04-28 06:25 41.73417 1.74955 21730 ft 407 kts 308°
2026-04-28 06:25 41.75278 1.72063 22289 ft 412 kts 313°
2026-04-28 06:25 41.77468 1.69636 22849 ft 418 kts 324°
2026-04-28 06:26 41.80061 1.67835 23377 ft 425 kts 336°
2026-04-28 06:26 41.82851 1.66464 23864 ft 429 kts 338°
2026-04-28 06:26 41.85688 1.65135 24347 ft 433 kts 339°
2026-04-28 06:26 41.88547 1.63822 24835 ft 436 kts 339°
2026-04-28 06:27 41.91426 1.62484 25315 ft 438 kts 338°
2026-04-28 06:27 41.94300 1.61119 25773 ft 440 kts 338°
2026-04-28 06:27 41.97198 1.59729 26209 ft 442 kts 338°
2026-04-28 06:27 42.00099 1.58340 26628 ft 445 kts 338°
2026-04-28 06:28 42.03028 1.56948 27043 ft 446 kts 338°
2026-04-28 06:28 42.05964 1.55557 27446 ft 448 kts 338°
2026-04-28 06:28 42.08906 1.54161 27833 ft 450 kts 338°
2026-04-28 06:28 42.11865 1.52751 28204 ft 452 kts 338°
2026-04-28 06:29 42.14841 1.51329 28554 ft 454 kts 338°
2026-04-28 06:29 42.17802 1.49913 29084 ft 450 kts 338°
2026-04-28 06:29 42.20749 1.48504 29554 ft 448 kts 338°
2026-04-28 06:29 42.23683 1.47101 30048 ft 446 kts 338°
2026-04-28 06:30 42.26604 1.45702 30491 ft 445 kts 338°
2026-04-28 06:30 42.29514 1.44306 30932 ft 443 kts 337°
2026-04-28 06:30 42.32415 1.42913 31361 ft 442 kts 337°
2026-04-28 06:30 42.35267 1.41542 31771 ft 440 kts 337°
2026-04-28 06:31 42.38157 1.40152 32116 ft 441 kts 337°
2026-04-28 06:31 42.43979 1.37346 32102 ft 443 kts 337°
2026-04-28 06:32 42.49729 1.34576 32124 ft 438 kts 337°
2026-04-28 06:32 42.55470 1.31795 32124 ft 438 kts 337°
2026-04-28 06:33 42.61214 1.29012 32093 ft 437 kts 337°
2026-04-28 06:33 42.66943 1.26231 32109 ft 438 kts 337°
2026-04-28 06:34 42.72748 1.23661 32121 ft 441 kts 346°
2026-04-28 06:34 42.78874 1.22668 32093 ft 444 kts 351°
2026-04-28 06:35 42.85006 1.21853 32086 ft 442 kts 351°
2026-04-28 06:35 42.91099 1.21023 32085 ft 443 kts 351°
2026-04-28 06:36 42.97238 1.20166 32078 ft 443 kts 351°
2026-04-28 06:36 43.03374 1.19322 32070 ft 443 kts 351°
2026-04-28 06:37 43.09516 1.18474 32063 ft 443 kts 351°
2026-04-28 06:37 43.15653 1.17622 32060 ft 443 kts 351°
2026-04-28 06:38 43.21792 1.16770 32049 ft 443 kts 350°
2026-04-28 06:38 43.27925 1.15917 32050 ft 443 kts 350°
2026-04-28 06:39 43.34042 1.15064 32053 ft 442 kts 350°
2026-04-28 06:39 43.40137 1.14212 32043 ft 442 kts 350°
2026-04-28 06:40 43.46262 1.13355 32042 ft 442 kts 350°
2026-04-28 06:40 43.52396 1.12496 32043 ft 442 kts 350°
2026-04-28 06:41 43.58519 1.11615 32043 ft 441 kts 347°
2026-04-28 06:41 43.64269 1.09084 32053 ft 432 kts 333°
2026-04-28 06:42 43.68868 1.06352 32044 ft 433 kts 332°
2026-04-28 06:42 43.74391 1.03012 32050 ft 434 kts 333°
2026-04-28 06:43 43.79929 0.99698 32047 ft 433 kts 333°
2026-04-28 06:43 43.85466 0.96379 32057 ft 433 kts 333°
2026-04-28 06:44 43.90996 0.93044 32046 ft 433 kts 333°
2026-04-28 06:44 43.96532 0.89706 32041 ft 433 kts 333°
2026-04-28 06:45 44.02028 0.86384 32040 ft 434 kts 332°
2026-04-28 06:45 44.07547 0.83042 32041 ft 432 kts 332°
2026-04-28 06:46 44.13067 0.79690 32034 ft 433 kts 332°
2026-04-28 06:46 44.18579 0.76338 32037 ft 433 kts 332°
2026-04-28 06:47 44.24100 0.72974 32035 ft 433 kts 332°
2026-04-28 06:47 44.29631 0.69596 32034 ft 433 kts 332°
2026-04-28 06:48 44.35144 0.66223 32032 ft 433 kts 332°
2026-04-28 06:48 44.40664 0.62837 32032 ft 433 kts 332°
2026-04-28 06:49 44.46177 0.59449 32037 ft 433 kts 332°
2026-04-28 06:49 44.51687 0.56057 32033 ft 433 kts 332°
2026-04-28 06:50 44.57202 0.52655 32036 ft 432 kts 331°
2026-04-28 06:50 44.62711 0.49248 32035 ft 433 kts 331°
2026-04-28 06:51 44.68191 0.45851 32032 ft 433 kts 331°
2026-04-28 06:51 44.73692 0.42437 32037 ft 433 kts 331°
2026-04-28 06:52 44.79201 0.39010 32038 ft 432 kts 331°
2026-04-28 06:52 44.84700 0.35580 32034 ft 432 kts 331°
2026-04-28 06:53 44.90199 0.32144 32036 ft 432 kts 331°
2026-04-28 06:53 44.95684 0.28710 32040 ft 431 kts 330°
2026-04-28 06:54 45.01173 0.25266 32041 ft 431 kts 330°
2026-04-28 06:54 45.06624 0.21839 32035 ft 431 kts 330°
2026-04-28 06:55 45.12102 0.18388 32047 ft 431 kts 330°
2026-04-28 06:55 45.17577 0.14930 32042 ft 430 kts 330°
2026-04-28 06:56 45.23044 0.11471 32040 ft 430 kts 330°
2026-04-28 06:56 45.28512 0.08004 32041 ft 430 kts 329°
2026-04-28 06:57 45.33979 0.04529 32045 ft 431 kts 329°
2026-04-28 06:57 45.39444 0.01051 32042 ft 430 kts 329°
2026-04-28 06:58 45.44908 -0.02437 32052 ft 430 kts 330°
2026-04-28 06:58 45.50369 -0.05931 32047 ft 432 kts 330°
2026-04-28 06:59 45.55854 -0.09444 32055 ft 432 kts 330°
2026-04-28 06:59 45.61329 -0.12960 32052 ft 431 kts 330°
2026-04-28 07:00 45.66803 -0.16485 32059 ft 432 kts 330°
2026-04-28 07:00 45.72276 -0.20014 32065 ft 431 kts 330°
2026-04-28 07:01 45.77748 -0.23550 32065 ft 431 kts 329°
2026-04-28 07:01 45.83218 -0.27095 32063 ft 431 kts 329°
2026-04-28 07:02 45.88679 -0.30640 32065 ft 431 kts 329°
2026-04-28 07:02 45.94124 -0.34183 32067 ft 432 kts 329°
2026-04-28 07:03 45.99589 -0.37744 32069 ft 430 kts 329°
2026-04-28 07:03 46.05044 -0.41310 32075 ft 430 kts 329°
2026-04-28 07:04 46.10473 -0.44866 32077 ft 429 kts 329°
2026-04-28 07:04 46.15915 -0.48438 32081 ft 429 kts 329°
2026-04-28 07:05 46.21354 -0.52014 32085 ft 429 kts 329°
2026-04-28 07:05 46.26787 -0.55596 32087 ft 429 kts 329°
2026-04-28 07:06 46.32211 -0.59180 32088 ft 429 kts 329°
2026-04-28 07:06 46.37641 -0.62775 32091 ft 429 kts 329°
2026-04-28 07:07 46.43185 -0.66073 32100 ft 437 kts 339°
2026-04-28 07:07 46.49270 -0.67379 32099 ft 444 kts 347°
2026-04-28 07:08 46.55408 -0.68368 32092 ft 443 kts 348°
2026-04-28 07:08 46.61534 -0.69388 32096 ft 443 kts 347°
2026-04-28 07:09 46.67664 -0.70439 32091 ft 442 kts 347°
2026-04-28 07:09 46.73733 -0.71458 32095 ft 442 kts 347°
2026-04-28 07:10 46.79842 -0.72489 32099 ft 441 kts 347°
2026-04-28 07:10 46.85935 -0.73526 32099 ft 441 kts 347°
2026-04-28 07:11 46.92050 -0.74567 32099 ft 442 kts 347°
2026-04-28 07:11 46.98149 -0.75603 32114 ft 440 kts 347°
2026-04-28 07:12 47.04242 -0.76646 32109 ft 441 kts 347°
2026-04-28 07:12 47.10337 -0.77690 32106 ft 440 kts 347°
2026-04-28 07:13 47.16377 -0.78726 32109 ft 440 kts 347°
2026-04-28 07:13 47.22459 -0.79773 32107 ft 439 kts 348°
2026-04-28 07:14 47.28527 -0.80818 32117 ft 439 kts 348°
2026-04-28 07:14 47.34597 -0.81868 32128 ft 439 kts 348°
2026-04-28 07:15 47.40670 -0.82919 32136 ft 438 kts 348°
2026-04-28 07:15 47.46726 -0.83970 32134 ft 438 kts 348°
2026-04-28 07:16 47.52785 -0.85027 32133 ft 438 kts 348°
2026-04-28 07:16 47.58865 -0.85907 32139 ft 440 kts 351°
2026-04-28 07:17 47.64964 -0.86526 32141 ft 439 kts 350°
2026-04-28 07:17 47.71048 -0.87283 32147 ft 438 kts 349°
2026-04-28 07:18 47.77117 -0.88058 32147 ft 438 kts 350°
2026-04-28 07:18 47.83156 -0.88780 32146 ft 438 kts 350°
2026-04-28 07:19 47.89239 -0.89527 32145 ft 438 kts 350°
2026-04-28 07:19 47.95309 -0.90281 32145 ft 437 kts 350°
2026-04-28 07:20 48.01383 -0.91030 32145 ft 438 kts 350°
2026-04-28 07:20 48.07434 -0.91778 32147 ft 433 kts 351°
2026-04-28 07:21 48.13402 -0.92519 32147 ft 434 kts 351°
2026-04-28 07:21 48.19428 -0.93272 32152 ft 435 kts 351°
2026-04-28 07:22 48.28470 -0.94398 32150 ft 434 kts 351°
2026-04-28 07:22 48.34490 -0.95152 32155 ft 434 kts 351°
2026-04-28 07:23 48.40511 -0.95908 32162 ft 434 kts 351°
2026-04-28 07:23 48.46529 -0.96665 32171 ft 434 kts 351°
2026-04-28 07:24 48.52511 -0.97419 32173 ft 434 kts 351°
2026-04-28 07:24 48.58525 -0.98180 32172 ft 433 kts 351°
2026-04-28 07:25 48.64545 -0.98942 32177 ft 434 kts 351°
2026-04-28 07:25 48.70560 -0.99706 32186 ft 434 kts 352°
2026-04-28 07:26 48.76572 -1.00471 32190 ft 433 kts 352°
2026-04-28 07:26 48.82580 -1.01237 32192 ft 433 kts 352°
2026-04-28 07:27 48.88589 -1.02007 32193 ft 433 kts 352°
2026-04-28 07:27 48.94595 -1.02776 32195 ft 433 kts 352°
2026-04-28 07:28 48.99588 -1.03417 32206 ft 433 kts 352°
2026-04-28 07:28 49.05588 -1.04190 32208 ft 432 kts 352°
2026-04-28 07:29 49.11588 -1.04965 32203 ft 432 kts 352°
2026-04-28 07:29 49.17582 -1.05740 32203 ft 433 kts 352°
2026-04-28 07:30 49.23577 -1.06518 32210 ft 432 kts 352°
2026-04-28 07:30 49.29574 -1.07297 32207 ft 432 kts 352°
2026-04-28 07:31 49.35552 -1.08078 32217 ft 432 kts 353°
2026-04-28 07:31 49.41511 -1.08856 32215 ft 432 kts 353°
2026-04-28 07:32 49.47509 -1.09641 32216 ft 432 kts 353°
2026-04-28 07:32 49.53489 -1.10428 32215 ft 432 kts 353°
2026-04-28 07:33 49.59491 -1.10919 32228 ft 433 kts
2026-04-28 07:33 49.65507 -1.10144 32228 ft 435 kts
2026-04-28 07:34 49.71533 -1.09296 32226 ft 434 kts
2026-04-28 07:34 49.77552 -1.08466 32229 ft 434 kts
2026-04-28 07:35 49.83523 -1.07655 32223 ft 433 kts
2026-04-28 07:35 49.89531 -1.06828 32223 ft 433 kts
2026-04-28 07:36 49.95534 -1.06001 32231 ft 433 kts
2026-04-28 07:36 50.01549 -1.05171 32233 ft 434 kts
2026-04-28 07:37 50.07545 -1.04339 32232 ft 428 kts
2026-04-28 07:37 50.13462 -1.03514 32240 ft 427 kts
2026-04-28 07:38 50.19398 -1.02688 32243 ft 429 kts
2026-04-28 07:38 50.25305 -1.01861 32251 ft 428 kts
2026-04-28 07:39 50.31236 -1.01028 32252 ft 427 kts
2026-04-28 07:39 50.37142 -1.00200 32257 ft 426 kts
2026-04-28 07:40 50.43052 -0.99369 32260 ft 427 kts
2026-04-28 07:40 50.48965 -0.98534 32265 ft 426 kts
2026-04-28 07:41 50.54876 -0.97699 32269 ft 425 kts
2026-04-28 07:41 50.60762 -0.96866 32270 ft 425 kts
2026-04-28 07:42 50.66652 -0.96027 32277 ft 424 kts
2026-04-28 07:42 50.72529 -0.95190 32278 ft 423 kts
2026-04-28 07:43 50.78391 -0.94353 32279 ft 422 kts
2026-04-28 07:43 50.84157 -0.92715 32300 ft 422 kts 17°
2026-04-28 07:44 50.89739 -0.89871 32297 ft 421 kts 18°
2026-04-28 07:44 50.95304 -0.86960 32298 ft 421 kts 18°
2026-04-28 07:45 51.00824 -0.84101 32301 ft 420 kts 18°
2026-04-28 07:45 51.06382 -0.81220 32302 ft 419 kts 18°
2026-04-28 07:46 51.11919 -0.78330 32300 ft 419 kts 18°
2026-04-28 07:46 51.17445 -0.75442 32307 ft 417 kts 19°
2026-04-28 07:47 51.22962 -0.72553 32309 ft 418 kts 19°
2026-04-28 07:47 51.28477 -0.69657 32311 ft 416 kts 19°
2026-04-28 07:48 51.33991 -0.66754 32001 ft 423 kts 19°
2026-04-28 07:48 51.36790 -0.65277 31427 ft 422 kts 19°
2026-04-28 07:48 51.39567 -0.63810 30874 ft 419 kts 19°
2026-04-28 07:49 51.42320 -0.62356 30339 ft 412 kts 19°
2026-04-28 07:49 51.44978 -0.60949 29811 ft 402 kts 19°
2026-04-28 07:49 51.47605 -0.59558 29298 ft 393 kts 20°
2026-04-28 07:49 51.50176 -0.58193 28772 ft 385 kts 20°
2026-04-28 07:50 51.52696 -0.56853 28265 ft 378 kts 20°
2026-04-28 07:50 51.55170 -0.55536 27751 ft 371 kts 20°
2026-04-28 07:50 51.57636 -0.54222 27249 ft 365 kts 20°
2026-04-28 07:50 51.60030 -0.52947 26747 ft 360 kts 21°
2026-04-28 07:51 51.62392 -0.51686 26241 ft 356 kts 21°
2026-04-28 07:51 51.64697 -0.50454 25745 ft 352 kts 21°
2026-04-28 07:51 51.67005 -0.49219 25254 ft 347 kts 21°
2026-04-28 07:51 51.69286 -0.47998 24766 ft 343 kts 21°
2026-04-28 07:52 51.71538 -0.46790 24271 ft 339 kts 22°
2026-04-28 07:52 51.73766 -0.45593 23785 ft 337 kts 22°
2026-04-28 07:52 51.75990 -0.44397 23298 ft 335 kts 22°
2026-04-28 07:52 51.78220 -0.43327 22807 ft 336 kts 14°
2026-04-28 07:53 51.80565 -0.43188 22339 ft 342 kts 358°
2026-04-28 07:53 51.82862 -0.44250 22031 ft 349 kts 340°
2026-04-28 07:53 51.85042 -0.46197 21688 ft 366 kts 336°
2026-04-28 07:53 51.87225 -0.48310 21345 ft 363 kts 334°
2026-04-28 07:54 51.89353 -0.50451 21013 ft 357 kts 334°
2026-04-28 07:54 51.91448 -0.52550 20682 ft 351 kts 335°
2026-04-28 07:54 51.93524 -0.54584 20359 ft 347 kts 335°
2026-04-28 07:54 51.95593 -0.56580 20044 ft 346 kts 335°
2026-04-28 07:55 51.97675 -0.58587 19722 ft 349 kts 335°
2026-04-28 07:55 51.99760 -0.60618 19405 ft 348 kts 335°
2026-04-28 07:55 52.01825 -0.62649 19091 ft 346 kts 335°
2026-04-28 07:55 52.03879 -0.64673 18776 ft 345 kts 336°
2026-04-28 07:56 52.05925 -0.66684 18470 ft 343 kts 336°
2026-04-28 07:56 52.07963 -0.68684 18154 ft 341 kts 336°
2026-04-28 07:56 52.09993 -0.70677 17841 ft 340 kts 336°
2026-04-28 07:56 52.11994 -0.72644 17533 ft 339 kts 336°
2026-04-28 07:57 52.14008 -0.74627 17216 ft 339 kts 336°
2026-04-28 07:57 52.16024 -0.76619 16916 ft 338 kts 335°
2026-04-28 07:57 52.18031 -0.78603 16600 ft 337 kts 335°
2026-04-28 07:57 52.20039 -0.80588 16300 ft 337 kts 335°
2026-04-28 07:58 52.22038 -0.82576 15988 ft 337 kts 333°
2026-04-28 07:58 52.23815 -0.85138 15700 ft 347 kts 316°
2026-04-28 07:58 52.25088 -0.88539 15392 ft 357 kts 297°
2026-04-28 07:58 52.25774 -0.92457 15061 ft 360 kts 288°
2026-04-28 07:59 52.26326 -0.96433 14719 ft 358 kts 287°
2026-04-28 07:59 52.26837 -1.00389 14390 ft 354 kts 286°
2026-04-28 07:59 52.27346 -1.04304 14061 ft 351 kts 287°
2026-04-28 07:59 52.27870 -1.08181 13748 ft 349 kts 287°
2026-04-28 08:00 52.28403 -1.12034 13427 ft 347 kts 287°
2026-04-28 08:00 52.28933 -1.15863 13111 ft 345 kts 287°
2026-04-28 08:00 52.29445 -1.19623 12803 ft 343 kts 287°
2026-04-28 08:00 52.29957 -1.23418 12494 ft 341 kts 286°
2026-04-28 08:01 52.30469 -1.27246 12193 ft 340 kts 286°
2026-04-28 08:01 52.30968 -1.30980 12011 ft 331 kts 286°
2026-04-28 08:01 52.31446 -1.34555 11875 ft 320 kts 286°
2026-04-28 08:01 52.31921 -1.38088 11605 ft 317 kts 287°
2026-04-28 08:02 52.32390 -1.41584 11326 ft 313 kts 286°
2026-04-28 08:02 52.32852 -1.45039 11065 ft 310 kts 286°
2026-04-28 08:02 52.33308 -1.48472 10789 ft 308 kts 286°
2026-04-28 08:02 52.33759 -1.51878 10515 ft 304 kts 286°
2026-04-28 08:03 52.34200 -1.55226 10253 ft 299 kts 286°
2026-04-28 08:03 52.34633 -1.58522 10006 ft 295 kts 286°
2026-04-28 08:03 52.35064 -1.61790 9742 ft 293 kts 286°
2026-04-28 08:03 52.35487 -1.65028 9483 ft 291 kts 284°
2026-04-28 08:04 52.35586 -1.68338 9325 ft 291 kts 269°
2026-04-28 08:04 52.35476 -1.71642 9176 ft 291 kts 269°
2026-04-28 08:04 52.35359 -1.74913 9012 ft 285 kts 269°
2026-04-28 08:04 52.35236 -1.78107 8824 ft 278 kts 269°
2026-04-28 08:05 52.35115 -1.81228 8654 ft 272 kts 269°
2026-04-28 08:05 52.34999 -1.84281 8499 ft 266 kts 269°
2026-04-28 08:05 52.34886 -1.87263 8353 ft 260 kts 269°
2026-04-28 08:05 52.34775 -1.90175 8197 ft 254 kts 269°
2026-04-28 08:06 52.34667 -1.93026 8044 ft 250 kts 269°
2026-04-28 08:06 52.34558 -1.95828 7891 ft 249 kts 269°
2026-04-28 08:06 52.34444 -1.98682 7749 ft 247 kts 269°
2026-04-28 08:06 52.34336 -2.01446 7597 ft 246 kts 269°
2026-04-28 08:07 52.34227 -2.04233 7446 ft 246 kts 269°
2026-04-28 08:07 52.34204 -2.07010 7413 ft 242 kts 285°
2026-04-28 08:07 52.34802 -2.09517 7421 ft 233 kts 311°
2026-04-28 08:07 52.35938 -2.11278 7412 ft 221 kts 336°
2026-04-28 08:08 52.37356 -2.12065 7406 ft 213 kts
2026-04-28 08:08 52.38797 -2.11859 7413 ft 205 kts 21°
2026-04-28 08:08 52.40032 -2.10795 7403 ft 200 kts 42°
2026-04-28 08:08 52.40921 -2.09055 7394 ft 200 kts 62°
2026-04-28 08:09 52.41346 -2.06883 7401 ft 202 kts 81°
2026-04-28 08:09 52.41240 -2.04577 7406 ft 207 kts 99°
2026-04-28 08:09 52.40871 -2.02281 7400 ft 209 kts 101°
2026-04-28 08:09 52.40448 -2.00013 7389 ft 208 kts 103°
2026-04-28 08:10 52.40002 -1.97755 7392 ft 209 kts 104°
2026-04-28 08:10 52.39274 -1.95645 7212 ft 220 kts 125°
2026-04-28 08:10 52.38155 -1.93946 6925 ft 222 kts 137°
2026-04-28 08:10 52.36845 -1.92621 6551 ft 221 kts 145°
2026-04-28 08:11 52.35495 -1.91458 6201 ft 218 kts 146°
2026-04-28 08:11 52.34155 -1.90324 5849 ft 215 kts 146°
2026-04-28 08:11 52.32830 -1.89210 5430 ft 214 kts 146°
2026-04-28 08:11 52.31508 -1.88104 4963 ft 212 kts 146°
2026-04-28 08:12 52.30218 -1.87010 4554 ft 209 kts 145°
2026-04-28 08:12 52.29016 -1.85861 4321 ft 190 kts 131°
2026-04-28 08:12 52.28325 -1.84164 3979 ft 171 kts 98°
2026-04-28 08:12 52.28295 -1.82321 3633 ft 163 kts 78°
2026-04-28 08:13 52.28575 -1.80538 3287 ft 161 kts 68°
2026-04-28 08:13 52.28983 -1.78849 2943 ft 158 kts 64°
2026-04-28 08:13 52.29552 -1.77323 2585 ft 157 kts 54°
2026-04-28 08:13 52.30183 -1.75844 2187 ft 161 kts 55°
2026-04-28 08:14 52.30809 -1.74309 2045 ft 167 kts 57°
2026-04-28 08:14 52.31444 -1.72682 2016 ft 166 kts 57°
2026-04-28 08:14 52.32037 -1.71117 2000 ft 161 kts 58°
2026-04-28 08:14 52.32620 -1.69569 2000 ft 159 kts 58°
2026-04-28 08:15 52.33204 -1.68020 1999 ft 159 kts 56°
2026-04-28 08:15 52.33950 -1.66715 1998 ft 159 kts 38°
2026-04-28 08:15 52.34576 -1.66078 2001 ft 160 kts 27°
2026-04-28 08:15 52.35636 -1.65565 2004 ft 158 kts 10°
2026-04-28 08:16 52.36720 -1.65636 2009 ft 160 kts 353°
2026-04-28 08:16 52.37766 -1.66325 1919 ft 163 kts 331°
2026-04-28 08:16 52.38695 -1.67352 1701 ft 158 kts 330°
2026-04-28 08:16 52.39582 -1.68342 1475 ft 151 kts 329°
2026-04-28 08:17 52.40444 -1.69292 1300 ft 150 kts 330°
2026-04-28 08:17 52.41293 -1.70238 1095 ft 144 kts 328°
2026-04-28 08:17 52.42118 -1.71171 933 ft 147 kts 329°
2026-04-28 08:17 52.42952 -1.72098 735 ft 142 kts 329°
2026-04-28 08:18 52.43780 -1.73032 550 ft 147 kts 328°
2026-04-28 08:18 52.44633 -1.73968 365 ft 148 kts 328°
2026-04-28 08:18 52.45428 -1.74846 323 ft 106 kts 326°
2026-04-28 08:18 52.45837 -1.75305 322 ft 58 kts 325°
2026-04-28 08:19 52.46064 -1.75564 317 ft 21 kts 327°
2026-04-28 08:19 52.46161 -1.75581 318 ft 14 kts 38°
2026-04-28 08:19 52.46215 -1.75459 317 ft 13 kts 69°
2026-04-28 08:19 52.46177 -1.75351 318 ft 12 kts 144°
2026-04-28 08:20 52.46102 -1.75266 319 ft 14 kts 146°
2026-04-28 08:20 52.46013 -1.75169 320 ft 16 kts 147°
2026-04-28 08:20 52.45912 -1.75058 321 ft 18 kts 146°
2026-04-28 08:20 52.45801 -1.74934 320 ft 20 kts 145°
2026-04-28 08:21 52.45679 -1.74798 322 ft 22 kts 146°
2026-04-28 08:21 52.45556 -1.74666 325 ft 21 kts 147°
2026-04-28 08:21 52.45452 -1.74499 326 ft 22 kts 114°
2026-04-28 08:21 52.45385 -1.74273 327 ft 22 kts 116°
2026-04-28 08:22 52.45325 -1.74080 328 ft 17 kts 117°
2026-04-28 08:22 52.45247 -1.73938 328 ft 18 kts 147°
2026-04-28 08:22 52.45142 -1.73821 331 ft 19 kts 145°
2026-04-28 08:22 52.45021 -1.73727 332 ft 20 kts 151°
2026-04-28 08:23 52.44914 -1.73592 330 ft 18 kts 116°
2026-04-28 08:23 52.44948 -1.73402 331 ft 16 kts 58°
2026-04-28 08:23 52.44987 -1.73301 331 ft 7 kts 57°
2026-04-28 08:23 52.45022 -1.73297 333 ft 5 kts 327°
2026-04-28 08:24 52.45035 -1.73311 333 ft 0 kts 327°